EHI
0 0 0 0 0 0 0 0 0 0 0 0 0 0 0 0 0 0 0 0 0 0 0 0 0 0 0 0 0 0 0 0 0 0 0 0 0 0 0 0 0 0 0
1 1 0 0 0 0 0 0 0 0 0 0 0 0 0 0 0 0 0 0 0 0 0 0 0 0 0 0 0 0 0 0 0 0 0 0 0 0 0 0 0 0 0
2 2 1 0 0 0 0 0 0 0 0 0 0 0 0 0 0 0 0 0 0 0 0 0 0 0 0 0 0 0 0 0 0 0 0 0 0 0 0 0 0 0 0
3 2 1 0 0 0 0 0 0 0 0 0 0 0 0 0 0 0 0 0 0 0 0 0 0 0 0 0 0 0 0 0 0 0 0 0 0 0 0 0 0 0 0
1 2 1 0 0 0 0 0 0 0 0 0 0 0 0 0 0 0 0 0 0 0 0 0 0 0 0 0 0 0 0 0 0 0 0 0 0 0 0 0 0 0 0
0 1 1 0 0 0 0 0 0 0 0 0 0 0 0 0 0 0 0 0 0 0 0 0 0 0 0 0 0 0 0 0 0 0 0 0 0 0 0 0 0 0 0
0 0 0 0 0 0 0 0 0 0 0 0 0 0 0 0 0 0 0 0 0 0 0 0 0 0 0 0 0 0 0 0 0 0 0 0 0 0 0 0 0 0 0
0 0 0 0 0 0 0 0 0 0 0 0 0 0 0 0 0 0 0 0 0 0 0 0 0 0 0 0 0 0 0 0 0 0 0 0 0 0 0 0 0 0 0
0 0 0 0 0 0 0 0 0 0 0 0 0 0 0 0 0 0 0 0 0 0 0 0 0 0 0 0 0 0 0 0 0 0 0 0 0 0 0 0 0 0 0
0 0 0 0 0 0 0 0 0 0 0 0 0 0 0 0 0 0 0 0 0 0 0 0 0 0 0 0 0 0 0 0 0 0 0 0 0 0 0 0 0 0 0
0 0 0 0 0 0 0 0 0 0 0 0 0 0 0 0 0 0 0 0 0 0 0 0 0 0 0 0 0 0 0 0 0 0 0 0 0 0 0 0 0 0 0
0 0 0 0 0 0 0 0 0 0 0 0 0 0 0 0 0 0 0 0 0 0 0 0 0 0 0 0 0 0 0 0 0 0 0 0 0 0 0 0 0 0 0
0 0 0 0 0 0 0 0 0 0 0 0 0 0 0 0 0 0 0 0 0 0 0 0 0 0 0 0 0 0 0 0 0 0 0 0 0 0 0 0 0 0 0
0 0 0 0 0 0 0 0 0 0 0 0 0 0 0 0 0 0 0 0 0 0 0 0 0 0 0 0 0 0 0 0 0 0 0 0 0 0 0 0 0 0 0
0 0 0 0 0 0 0 0 0 0 0 0 0 0 0 0 0 0 0 0 0 0 0 0 0 0 0 0 0 0 0 0 0 0 0 0 0 0 0 0 0 0 0
0 0 0 0 0 0 0 0 0 0 0 0 0 0 0 0 0 0 0 0 0 0 0 0 0 0 0 0 0 0 0 0 0 0 0 0 0 0 0 0 0 0 0
0 0 0 0 0 0 0 0 0 0 0 0 0 0 0 0 0 0 0 0 0 0 0 0 0 0 0 0 0 0 0 0 0 0 0 0 0 0 0 0 0 0 0
0 0 0 0 0 0 0 0 0 0 0 0 0 0 0 0 0 0 0 0 0 0 0 0 0 0 0 0 0 0 0 0 0 0 0 0 0 0 0 0 0 0 0
0 0 0 0 0 0 0 0 0 0 0 0 0 0 0 0 0 0 0 0 0 0 0 0 0 0 0 0 0 0 0 0 0 0 0 0 0 0 0 0 0 0 0
0 0 0 0 0 0 0 0 0 0 0 0 0 0 0 0 0 0 0 0 0 0 0 0 0 0 0 0 0 0 0 0 0 0 0 0 0 0 0 0 0 0 0
0 0 0 0 0 0 0 0 0 0 0 0 0 0 0 0 0 0 0 0 0 0 0 0 0 0 0 0 0 0 0 0 0 0 0 0 0 0 0 0 0 0 0
0 0 0 0 0 0 0 0 0 0 0 0 0 0 0 0 0 0 0 0 0 0 0 0 0 0 0 0 0 0 0 0 0 0 0 0 0 0 0 0 0 0 0
0 0 0 0 0 0 0 0 0 0 0 0 0 0 0 0 0 0 0 0 0 0 0 0 0 0 0 0 0 0 0 0 0 0 0 0 0 0 0 0 0 0 0
0 0 0 0 0 0 0 0 0 0 0 0 0 0 0 0 0 0 0 0 0 0 0 0 0 0 0 0 0 0 0 0 0 0 0 0 0 0 0 0 0 0 0
0 0 0 0 0 0 0 0 0 0 0 0 0 0 0 0 0 0 0 0 0 0 0 0 0 0 0 0 0 0 0 0 0 0 0 0 0 0 0 0 0 0 0
0 0 0 0 0 0 0 0 0 0 0 0 0 0 0 0 0 0 0 0 0 0 0 0 0 0 0 0 0 0 0 0 0 0 0 0 0 0 0 0 0 0 0
Wind_Speed
1 1 1 1 1 1 1 1 1 1 1 1 1 1 1 0 1 1 2 3 3 3 4 4 4 5 5 5 6 7 7 7 7 7 7 7 7 7 7 8 8 8 8
1 1 1 1 1 1 1 1 1 1 1 1 1 1 1 1 1 1 2 2 2 2 3 4 4 4 5 5 5 6 6 6 6 6 6 6 6 6 6 6 6 7 7
2 1 1 1 1 1 1 0 0 1 1 1 1 2 1 1 0 1 1 2 2 2 2 3 3 3 5 5 5 6 6 6 6 5 5 6 6 6 6 6 6 6 6
2 1 1 1 1 1 1 0 0 1 1 1 1 1 1 1 1 1 1 2 2 2 2 2 2 3 4 5 6 6 7 7 6 5 5 5 6 6 6 6 5 5 5
1 1 1 1 1 1 1 1 1 1 1 1 1 1 2 1 1 1 1 2 2 2 2 2 3 2 2 4 5 6 7 7 7 6 5 5 6 6 6 6 6 5 5
1 1 0 1 1 1 1 0 0 1 0 0 1 2 2 2 2 2 2 2 2 2 2 2 2 2 2 3 5 6 7 8 8 7 7 6 6 6 6 6 6 6 5
1 0 0 0 0 0 1 1 0 0 0 0 0 1 2 2 2 2 2 2 2 2 2 2 2 2 2 3 4 6 7 8 8 8 8 7 7 7 7 7 6 6 6
2 1 0 0 0 0 1 1 0 0 1 0 1 0 1 1 1 1 1 1 1 1 1 2 2 2 2 2 3 5 5 7 8 9 8 8 7 7 7 7 7 7 6
1 1 1 1 1 1 1 1 1 1 1 1 1 1 1 1 1 2 1 0 1 0 0 1 1 2 2 2 2 4 5 5 8 9 9 9 9 8 8 8 8 7 7
1 1 1 1 1 1 1 2 1 1 2 2 1 1 1 1 1 1 1 1 1 1 1 1 0 0 1 1 2 3 4 5 7 9 9 9 9 9 9 8 8 8 7
1 1 1 1 1 1 2 2 2 2 2 2 2 1 1 1 1 2 2 2 1 1 1 1 1 1 1 1 2 2 4 5 6 7 8 9 9 9 9 9 8 8 7
1 2 1 1 1 1 2 2 2 2 2 3 2 1 1 2 2 2 2 2 2 2 2 1 1 1 1 1 1 1 2 5 6 6 7 7 7 8 9 9 8 8 7
2 2 2 1 2 2 2 2 2 3 3 3 3 3 2 3 2 2 2 2 2 2 1 2 2 1 1 1 1 1 1 3 4 5 6 7 6 6 7 7 7 7 7
2 3 2 2 2 2 3 2 2 3 3 3 4 3 3 3 2 2 3 2 2 3 2 3 1 2 2 1 1 1 1 1 2 4 5 5 4 3 4 6 6 6 6
3 3 3 3 3 3 3 3 3 4 4 4 4 4 4 3 3 2 2 3 3 4 4 3 2 2 1 1 2 2 2 2 3 3 4 4 4 4 3 3 4 4 4
3 3 4 4 3 3 3 3 3 3 4 4 3 4 4 3 3 3 3 3 3 4 5 2 3 2 2 2 3 2 3 4 4 4 4 5 5 5 5 5 4 4 4
4 4 4 4 4 4 3 3 4 4 5 4 4 4 5 5 4 3 3 3 3 3 5 4 2 2 3 3 3 2 3 3 4 6 6 6 5 6 6 6 5 5 5
4 4 4 5 5 4 4 4 5 5 5 5 5 5 6 5 5 4 4 5 4 4 5 6 4 3 4 4 3 3 3 3 3 6 7 7 6 6 7 7 6 6 5
4 4 5 5 5 5 5 5 5 6 6 6 6 6 6 6 6 5 5 5 5 4 4 5 5 3 3 3 3 3 4 4 4 5 7 7 7 7 7 8 7 7 6
5 5 5 5 5 5 6 6 5 6 6 6 6 6 7 7 7 6 6 6 5 5 5 5 4 3 3 3 3 3 4 4 4 3 4 5 7 8 8 8 8 8 8
5 5 5 5 5 6 6 6 5 6 6 6 7 7 8 9 10 9 7 6 6 6 5 5 5 4 4 4 5 4 5 4 4 3 3 4 4 4 5 8 9 9 9
5 5 5 5 6 6 8 9 8 6 6 7 8 8 8 9 10 12 12 12 10 9 8 7 6 7 7 6 5 4 4 4 5 3 3 5 4 5 5 5 7 9 9
5 5 5 6 6 7 9 10 10 7 7 7 8 7 7 8 9 8 10 11 12 14 13 10 9 10 8 7 6 6 6 6 5 4 3 4 3 5 4 5 9 9 9
5 5 6 6 6 7 9 10 10 7 7 8 8 8 9 8 8 9 8 9 9 10 12 10 10 10 9 8 8 8 7 5 3 3 3 4 3 4 4 4 8 9 9
5 5 6 6 6 7 9 10 9 5 6 8 8 8 9 9 11 11 9 9 9 9 10 12 12 11 12 12 9 5 5 4 4 4 3 3 3 2 3 4 5 9 9
5 6 6 6 6 7 9 10 10 5 6 7 7 7 10 11 12 12 9 9 10 9 6 6 7 8 9 10 11 9 7 6 4 4 4 3 2 1 2 3 3 3 5
Wind_Direction
28 22 38 31 9 24 29 349 342 336 340 331 339 358 5 41 91 103 119 120 131 143 147 148 153 156 156 151 150 139 131 124 124 121 119 119 113 109 109 103 100 98 98
12 17 28 19 8 8 17 323 349 347 322 332 344 345 339 350 114 122 141 141 142 152 163 159 160 170 168 165 157 152 146 140 135 135 133 130 127 123 119 116 110 105 100
12 13 29 16 4 359 336 312 26 15 348 347 349 341 337 342 18 163 163 160 165 164 169 171 169 178 179 182 176 169 164 153 146 146 149 144 142 141 136 130 126 119 113
14 18 22 359 4 8 333 1 61 42 12 353 338 321 323 318 303 220 173 174 170 174 175 175 180 182 185 191 193 187 179 168 163 160 159 159 158 157 155 148 143 136 127
16 28 15 350 7 6 340 356 30 39 28 1 321 304 302 284 269 250 193 185 183 174 170 177 184 196 204 205 204 199 189 181 177 175 170 169 172 173 173 166 162 153 145
2 12 6 353 7 6 347 7 27 352 28 24 315 296 278 265 248 227 210 193 186 174 175 183 181 200 215 219 220 209 201 192 187 185 183 180 182 183 183 179 174 169 166
345 309 280 7 350 305 318 319 82 15 346 68 20 309 294 264 235 218 197 186 183 185 181 185 184 184 200 214 224 220 213 203 197 192 191 191 192 194 191 189 188 187 186
336 318 307 263 270 310 328 316 89 12 292 97 144 245 314 315 341 298 218 184 185 174 181 196 188 191 188 187 214 222 224 213 203 198 196 195 194 197 201 199 194 194 195
312 333 298 257 242 241 247 274 219 205 228 253 210 190 174 229 321 304 296 147 108 111 232 216 202 190 189 184 194 216 226 226 215 208 205 205 204 206 207 207 205 204 205
300 310 281 264 251 235 239 256 245 214 203 233 258 270 257 192 189 271 308 339 357 333 302 306 285 207 191 197 205 199 211 220 225 221 215 213 211 211 213 215 216 217 216
278 287 284 263 260 259 250 249 260 230 212 226 238 259 275 263 229 194 244 273 289 275 285 308 296 242 222 226 211 208 199 209 220 223 219 219 220 218 219 220 222 223 224
271 267 280 270 259 256 256 253 256 238 228 237 248 243 224 217 216 212 220 245 268 273 278 270 264 251 224 229 250 322 205 205 216 222 221 220 225 225 224 222 225 226 227
275 266 275 265 264 258 260 258 256 250 234 232 235 245 240 236 237 244 224 244 268 282 268 260 249 241 241 224 226 302 226 210 216 226 228 225 226 229 226 224 229 230 226
248 258 261 261 264 262 265 255 255 256 248 236 239 242 247 243 238 224 219 224 261 278 260 252 259 229 228 229 231 247 243 242 220 224 232 233 228 225 229 225 228 228 226
248 247 255 261 263 260 259 258 250 251 247 241 235 240 245 242 237 232 219 202 215 254 263 243 237 232 226 231 237 228 222 226 232 226 233 231 224 216 222 227 230 231 231
245 243 247 256 260 259 258 256 256 254 252 244 238 240 244 240 235 226 223 229 223 230 255 243 243 242 235 249 260 253 233 231 225 223 227 229 222 218 221 225 226 229 227
242 244 246 251 255 256 254 255 258 258 256 252 248 244 244 237 233 225 222 225 227 226 249 260 252 223 222 242 251 250 251 231 225 225 225 226 230 225 219 220 220 225 231
246 246 247 249 253 256 251 248 254 257 251 252 250 249 249 241 234 227 223 228 231 231 238 248 247 232 225 222 234 239 263 248 231 232 229 224 226 229 224 224 220 225 231
250 251 248 248 249 253 253 251 249 253 252 252 252 249 250 240 241 234 228 231 233 239 239 233 242 241 238 223 227 251 260 248 236 237 234 228 227 231 230 228 227 229 231
248 245 245 246 247 251 255 255 255 257 258 257 257 254 252 243 239 236 233 231 230 233 233 228 236 239 239 227 213 231 258 244 234 235 244 242 238 239 239 234 233 233 232
254 251 250 249 246 248 248 250 251 256 257 261 260 255 254 251 247 243 239 231 226 229 229 225 231 239 235 221 222 225 241 241 236 226 232 237 233 233 235 237 234 233 234
255 257 256 252 250 255 261 265 263 254 256 258 262 261 261 254 250 252 249 243 235 228 229 228 232 229 232 229 228 220 229 231 244 217 214 242 224 233 234 230 235 234 235
255 257 258 253 252 256 263 265 266 259 252 253 255 260 264 261 253 246 249 249 243 240 236 232 229 231 229 223 218 221 227 230 240 210 203 244 231 239 242 245 240 236 235
259 258 258 252 255 261 268 269 271 263 256 255 253 254 257 255 250 248 247 247 243 239 237 235 234 234 229 222 218 222 229 241 261 226 198 236 236 240 247 239 238 235 240
267 262 260 255 254 258 265 270 271 257 259 260 259 259 258 252 256 254 249 248 249 248 243 239 242 242 235 230 224 218 223 217 243 240 205 218 235 251 255 246 243 241 239
266 269 270 261 258 257 266 272 273 256 261 264 262 258 257 258 258 253 243 240 244 248 238 236 238 238 230 223 223 218 215 215 227 237 207 200 214 215 265 256 242 242 237